This demonstration page uses our WeatherBlox Daily Observations layout. Learn more.

Left ArrowRight Arrow

Hourly Observations for May 15, 2015

Temp ( °F °C ) Dew Point ( °F °C ) Humidity (%) Winds ( mph kmh ) Pressure ( in mb ) Visibility ( mi km ) Precip ( " mm )
12:15 am 00:15 Clear 55 13 46 8 72 72 S 6 9 30.33 1027 10 16 N/A
12:35 am 00:35 Clear 55 13 46 8 72 72 SSW 5 7 30.33 1027 10 16 N/A
12:55 am 00:55 Clear 55 13 46 8 72 72 S 8 13 30.33 1027 10 16 N/A
1:15 am 01:15 Clear 55 13 46 8 72 72 SSW 7 11 30.33 1027 10 16 N/A
1:35 am 01:35 Clear 55 13 46 8 72 72 S 6 9 30.33 1027 10 16 N/A
1:55 am 01:55 Clear 55 13 46 8 72 72 SSW 6 9 30.33 1027 10 16 N/A
2:15 am 02:15 Clear 55 13 46 8 72 72 SW 5 7 30.33 1027 10 16 N/A
2:35 am 02:35 Clear 55 13 46 8 72 72 S 7 11 30.33 1027 10 16 N/A
2:55 am 02:55 Clear 55 13 46 8 72 72 S 6 9 30.33 1027 10 16 N/A
3:15 am 03:15 Clear 55 13 46 8 72 72 S 7 11 30.30 1026 10 16 N/A
3:35 am 03:35 Clear 55 13 46 8 72 72 S 6 9 30.30 1026 10 16 N/A
3:55 am 03:55 Clear 55 13 46 8 72 72 S 5 7 30.33 1027 10 16 N/A
4:15 am 04:15 Clear 54 12 46 8 77 77 S 6 9 30.36 1028 10 16 N/A
4:35 am 04:35 Clear 54 12 46 8 77 77 S 7 11 30.36 1028 10 16 N/A
4:55 am 04:55 Clear 54 12 46 8 77 77 S 6 9 30.33 1027 10 16 N/A
5:15 am 05:15 Clear 54 12 46 8 77 77 S 6 9 30.33 1027 10 16 N/A
5:35 am 05:35 Clear 54 12 46 8 77 77 S 6 9 30.33 1027 10 16 N/A
5:55 am 05:55 Clear 52 11 48 9 88 88 N N/A 30.33 1027 10 16 N/A
6:15 am 06:15 Sunny 54 12 48 9 82 82 S 7 11 30.33 1027 10 16 N/A
6:35 am 06:35 Sunny 52 11 48 9 88 88 SSW 5 7 30.36 1028 10 16 N/A
6:55 am 06:55 Sunny 54 12 50 10 88 88 S 7 11 30.36 1028 10 16 N/A
7:15 am 07:15 Sunny 54 12 50 10 88 88 S 8 13 30.36 1028 10 16 N/A
7:35 am 07:35 Sunny 54 12 50 10 88 88 S 8 13 30.36 1028 10 16 N/A
7:55 am 07:55 Sunny 55 13 50 10 82 82 S 9 15 30.30 1026 10 16 N/A
8:15 am 08:15 Sunny 55 13 50 10 82 82 S 8 13 30.33 1027 10 16 N/A
8:35 am 08:35 Sunny 59 15 50 10 72 72 S 12 19 30.33 1027 10 16 N/A
8:55 am 08:55 Sunny 59 15 50 10 72 72 S 9 15 30.33 1027 10 16 N/A
9:15 am 09:15 Sunny 61 16 48 9 63 63 S 14 22 30.33 1027 10 16 N/A
9:35 am 09:35 Sunny 61 16 48 9 63 63 S 14 22 30.33 1027 10 16 N/A
9:55 am 09:55 Sunny 63 17 50 10 64 64 S 7 11 30.30 1026 10 16 N/A
10:15 am 10:15 Sunny 64 18 50 10 60 60 S 10 17 30.30 1026 10 16 N/A
10:35 am 10:35 Sunny 64 18 50 10 60 60 S 10 17 30.30 1026 10 16 N/A
10:55 am 10:55 Sunny 68 20 52 11 56 56 S 13 20 30.30 1026 10 16 N/A
11:15 am 11:15 Sunny 68 20 52 11 56 56 S 10 17 30.30 1026 10 16 N/A
11:35 am 11:35 Sunny 70 21 52 11 53 53 SSW 15 24 30.30 1026 10 16 N/A
11:55 am 11:55 Sunny 72 22 54 12 53 53 S 14 22 30.27 1025 10 16 N/A
12:15 pm 12:15 Sunny 72 22 52 11 50 50 S 13 20 30.27 1025 10 16 N/A
12:35 pm 12:35 Sunny 72 22 52 11 50 50 SSE 12 19 30.27 1025 10 16 N/A
12:55 pm 12:55 Sunny 73 23 54 12 50 50 S 14 22 30.27 1025 10 16 N/A
1:15 pm 13:15 Sunny 75 24 54 12 47 47 S 16 26 30.27 1025 10 16 N/A
1:35 pm 13:35 Sunny 75 24 54 12 47 47 S 12 19 30.24 1024 10 16 N/A
1:55 pm 13:55 Sunny 77 25 55 13 47 47 S 13 20 30.24 1024 10 16 N/A
2:15 pm 14:15 Sunny 77 25 55 13 47 47 S 7 11 30.24 1024 10 16 N/A
2:35 pm 14:35 Sunny 77 25 55 13 47 47 SSW 15 24 30.24 1024 10 16 N/A
2:55 pm 14:55 Sunny 77 25 55 13 47 47 S 13 20 30.21 1023 10 16 N/A
3:15 pm 15:15 Sunny 77 25 55 13 47 47 S 14 22 30.21 1023 10 16 N/A
3:35 pm 15:35 Sunny 79 26 57 14 48 48 S 14 22 30.21 1023 10 16 N/A
3:55 pm 15:55 Sunny 77 25 55 13 47 47 S 14 22 30.21 1023 10 16 N/A
4:15 pm 16:15 Mostly Cloudy 77 25 59 15 54 54 S 12 19 30.21 1023 10 16 N/A
4:35 pm 16:35 Mostly Cloudy 77 25 59 15 54 54 S 10 17 30.21 1023 10 16 N/A
4:55 pm 16:55 Partly Cloudy 79 26 59 15 51 51 S 14 22 30.21 1023 10 16 N/A
5:15 pm 17:15 Partly Cloudy 77 25 59 15 54 54 S 14 22 30.18 1022 10 16 N/A
5:35 pm 17:35 Partly Cloudy 77 25 59 15 54 54 S 12 19 30.18 1022 10 16 N/A
5:55 pm 17:55 Mostly Cloudy 77 25 59 15 54 54 S 12 19 30.18 1022 10 16 N/A
6:15 pm 18:15 Mostly Cloudy 77 25 59 15 54 54 S 10 17 30.18 1022 10 16 N/A
6:35 pm 18:35 Partly Cloudy 75 24 59 15 57 57 S 13 20 30.18 1022 10 16 N/A
6:55 pm 18:55 Partly Cloudy 75 24 59 15 57 57 S 9 15 30.18 1022 10 16 N/A
7:15 pm 19:15 Sunny 75 24 59 15 57 57 S 9 15 30.18 1022 10 16 N/A
7:35 pm 19:35 Sunny 73 23 59 15 61 61 S 10 17 30.18 1022 10 16 N/A
7:55 pm 19:55 Partly Cloudy 73 23 59 15 61 61 S 9 15 30.18 1022 10 16 N/A
8:15 pm 20:15 Sunny 73 23 59 15 61 61 S 9 15 30.18 1022 10 16 N/A
8:35 pm 20:35 Clear 72 22 59 15 65 65 S 9 15 30.15 1021 10 16 N/A
8:55 pm 20:55 Clear 72 22 59 15 65 65 S 7 11 30.15 1021 10 16 N/A
9:15 pm 21:15 Clear 72 22 61 16 69 69 S 6 9 30.18 1022 10 16 N/A
9:35 pm 21:35 Clear 70 21 61 16 73 73 S 3 6 30.18 1022 10 16 N/A
9:55 pm 21:55 Clear 70 21 61 16 73 73 S 5 7 30.18 1022 10 16 N/A
10:15 pm 22:15 Clear 70 21 61 16 73 73 S 6 9 30.18 1022 10 16 N/A
10:35 pm 22:35 Clear 70 21 61 16 73 73 SSE 5 7 30.18 1022 10 16 N/A
10:55 pm 22:55 Clear 68 20 61 16 78 78 N N/A 30.21 1023 10 16 N/A
11:15 pm 23:15 Clear 68 20 61 16 78 78 S 5 7 30.21 1023 10 16 N/A
11:35 pm 23:35 Clear 68 20 61 16 78 78 S 3 6 30.18 1022 10 16 N/A
11:55 pm 23:55 Clear 66 19 61 16 83 83 S 6 9 30.18 1022 10 16 N/A

Powered by AerisWeather